Theta_e
314 320 324 326 327 326 325 326 322 318 313 312 309 305 304 301 301 299 298 297 296 294 295 293 292 293 292 292 292 292 290 291 289 289 289 290 289 289 289 290 290 289 289
311 311 316 323 322 322 322 318 312 310 308 308 304 301 300 298 298 297 294 294 293 292 292 291 290 291 290 291 290 290 290 290 289 286 287 287 287 288 288 288 288 289 288
310 310 310 310 315 319 317 312 308 306 303 302 299 298 296 295 295 295 293 293 292 291 291 290 289 289 288 289 289 289 289 288 288 286 285 287 287 287 286 287 286 287 288
308 308 309 309 310 312 314 309 305 303 299 299 296 295 294 294 293 292 291 291 291 290 290 290 289 289 288 288 288 288 288 287 286 285 285 285 285 285 285 284 283 284 284
305 306 307 307 308 305 300 299 296 298 295 295 291 290 290 291 290 290 290 289 288 288 288 288 288 288 289 289 287 287 287 287 285 284 284 284 284 283 282 283 282 282 283
303 303 304 301 298 295 293 292 290 290 290 289 290 289 289 288 291 291 290 288 287 286 286 286 287 285 287 288 288 289 289 286 283 284 284 283 282 282 283 282 281 280 277
299 297 295 293 292 291 290 289 288 289 288 288 288 288 288 287 291 291 290 287 286 286 285 285 284 285 285 285 287 287 286 287 287 286 284 283 282 282 281 282 281 280 279
296 294 291 291 290 289 288 288 288 288 287 287 288 287 288 287 291 290 288 287 286 286 286 285 284 284 285 285 285 284 284 284 285 285 285 284 285 284 283 283 282 280 280
295 293 291 290 288 288 287 287 287 286 286 286 286 287 287 287 290 289 287 286 285 285 285 285 285 284 285 286 284 284 284 284 287 287 288 288 287 286 285 282 280 279 277
294 293 292 290 288 288 288 287 287 287 285 285 285 287 286 287 290 289 287 285 284 284 284 285 284 285 286 286 284 284 282 283 284 284 284 285 286 284 284 281 281 278 277
291 290 288 288 287 289 288 287 286 285 284 284 285 285 286 287 288 289 288 285 284 284 283 283 284 287 287 286 286 284 284 285 285 284 284 284 284 281 282 282 281 280 278
288 287 287 286 287 286 286 286 285 285 285 284 284 284 285 286 287 289 288 287 287 284 284 284 284 286 287 286 286 286 287 286 284 284 283 282 283 282 283 282 281 281 281
286 285 285 285 286 286 286 285 284 285 284 284 283 283 283 284 286 289 289 288 288 285 285 286 286 286 287 287 287 286 284 285 283 282 280 281 282 282 281 279 281 281 280
285 285 285 285 285 285 286 286 286 284 284 284 284 283 283 282 284 286 287 288 287 286 286 285 285 285 285 284 283 285 283 282 282 280 280 282 281 280 279 280 278 278 278
285 284 285 285 285 285 285 286 285 286 287 285 285 285 284 282 283 285 286 286 286 286 284 284 283 282 282 282 282 282 281 279 277 277 277 278 279 278 278 278 277 276 275
284 284 285 285 285 284 284 284 287 287 287 288 289 287 286 287 287 286 286 287 288 287 283 281 280 281 280 280 280 279 278 277 277 277 276 276 277 276 276 277 276 274 273
283 284 284 282 284 284 283 284 283 283 284 286 287 288 287 286 287 286 286 287 287 286 282 281 280 280 280 280 280 279 277 276 276 275 275 275 275 275 274 273 274 274 273
281 282 283 284 284 284 283 283 283 283 281 282 284 285 286 286 286 286 286 286 283 284 282 281 280 280 280 279 278 277 275 274 271 272 272 273 273 273 272 272 272 272 272
281 284 284 284 284 283 283 283 282 282 282 282 282 283 284 286 285 286 286 283 282 281 281 281 281 280 280 278 277 275 273 272 271 271 271 271 271 270 270 270 271 269 267
281 281 279 283 283 283 283 282 282 281 281 281 282 282 282 282 281 282 284 284 283 282 282 282 281 280 278 275 274 272 271 270 269 269 269 269 269 269 268 266 265 266 264
278 280 280 281 282 282 282 282 282 281 281 281 281 283 283 281 281 282 282 283 283 283 282 281 279 276 274 272 271 270 269 268 267 267 267 268 268 267 266 266 266 263 261
275 277 279 279 280 280 281 281 281 280 280 280 280 282 284 282 281 282 283 283 283 283 282 279 276 274 272 270 269 269 268 267 268 267 267 266 266 265 265 264 262 261 260
273 273 274 275 276 276 276 277 278 278 278 279 279 279 275 279 281 280 278 278 277 275 274 273 273 270 269 269 269 269 267 266 267 266 266 265 264 264 263 262 260 258 261
270 270 271 271 272 273 273 273 274 274 274 274 276 276 274 275 277 277 276 277 275 273 271 269 270 269 267 266 267 267 268 267 267 266 266 265 264 264 264 262 261 260 260
268 268 268 268 269 270 271 272 272 273 273 272 272 273 273 273 273 274 275 274 272 271 269 267 267 267 266 265 264 264 265 267 265 264 264 264 264 263 262 263 262 261 261
265 265 265 266 266 267 268 268 269 269 269 270 270 270 270 269 270 270 271 270 268 267 266 265 264 264 265 265 264 265 264 266 263 263 263 262 262 262 261 261 261 260 260
Wind_Speed
15 13 13 12 13 12 11 10 7 7 10 10 11 11 12 12 11 9 9 10 11 9 7 8 7 7 5 5 3 3 2 1 1 3 1 2 2 2 4 4 3 4 4
7 7 8 9 9 9 9 7 7 9 8 10 11 10 12 11 11 11 12 11 12 11 10 9 9 6 7 6 5 5 3 2 1 4 2 1 1 2 3 4 3 4 3
7 7 8 9 9 9 8 8 8 8 9 8 10 11 12 12 11 10 10 12 11 11 10 9 10 9 8 6 5 4 3 3 2 2 2 2 2 1 3 2 3 3 3
6 6 7 7 8 8 8 7 8 9 11 11 11 11 12 12 11 10 12 11 10 9 9 8 10 9 9 9 6 5 4 3 2 2 2 2 2 1 2 1 3 2 4
8 7 7 5 5 5 7 8 8 9 9 10 10 7 9 9 9 12 12 12 12 10 7 7 8 8 11 9 6 5 5 5 3 3 2 2 2 1 1 1 2 4 6
8 8 6 5 4 4 5 6 6 6 8 9 11 11 13 8 15 18 15 12 11 11 11 8 8 8 8 9 6 8 7 5 3 3 2 2 3 2 1 1 3 3 3
7 5 5 6 6 5 5 6 7 9 9 10 10 12 11 9 19 19 17 10 11 10 10 10 8 6 8 7 10 9 7 8 7 4 4 3 1 2 1 4 4 4 5
6 5 5 5 5 7 6 6 7 8 11 11 11 11 11 9 21 18 15 10 8 9 10 10 10 10 9 8 7 7 6 5 5 4 5 3 2 3 3 1 3 5 6
7 5 6 6 5 6 7 8 6 6 6 7 7 8 9 8 19 19 14 9 9 9 9 10 10 9 14 15 8 7 5 5 7 10 10 11 10 7 5 1 4 4 4
5 5 4 6 7 8 7 7 5 5 3 3 3 4 5 9 17 20 14 7 8 7 6 5 9 9 15 17 9 7 7 6 5 4 4 6 8 5 8 4 4 6 5
2 4 4 4 4 5 5 3 6 6 6 6 7 5 5 8 13 21 19 8 8 8 8 8 7 17 17 18 16 8 7 4 6 4 4 4 4 4 5 4 6 6 6
3 4 4 4 3 3 6 5 6 6 7 7 7 5 4 6 11 18 19 14 14 9 9 7 7 19 17 18 14 14 13 10 4 4 4 5 5 4 4 5 6 5 5
3 2 2 3 3 5 7 7 6 7 7 7 7 7 6 5 7 18 21 19 15 7 6 9 14 17 18 15 18 14 11 5 5 5 6 6 5 4 2 1 3 5 5
2 3 3 3 2 2 3 5 6 7 8 8 9 9 8 9 9 9 10 11 14 10 10 8 10 10 11 10 7 10 4 5 5 6 6 4 2 2 3 4 3 5 4
2 3 2 2 3 3 4 5 6 6 8 8 9 9 11 10 13 17 15 11 11 11 9 6 6 6 7 8 6 7 6 5 5 5 5 5 5 4 4 3 4 4 5
2 2 1 1 2 2 3 4 6 6 9 11 11 10 7 10 16 22 22 20 19 19 7 7 7 8 10 9 9 8 8 8 7 6 6 5 5 5 4 4 4 5 6
2 2 1 0 1 2 2 3 5 3 6 11 11 11 13 10 15 22 23 22 21 20 7 8 8 10 10 9 9 9 8 8 7 6 6 5 5 5 5 5 5 5 5
3 2 1 1 2 2 3 4 4 5 5 5 11 12 14 14 17 22 24 21 11 15 8 9 10 9 9 9 8 8 7 6 6 6 6 6 5 5 5 6 5 5 4
5 4 2 3 2 2 2 3 4 5 6 6 4 9 12 17 18 20 25 11 12 11 11 11 9 9 9 8 7 7 7 7 7 7 6 6 5 5 6 5 4 3 2
5 7 4 4 3 3 3 4 5 5 6 6 7 7 6 8 10 11 12 11 8 9 10 10 9 8 8 8 7 7 7 7 7 6 6 6 6 5 5 4 3 3 4
5 5 6 4 4 4 4 5 5 5 6 6 7 6 13 10 11 11 11 11 12 11 10 9 8 8 8 8 8 8 8 7 7 7 6 6 6 6 4 3 4 4 3
5 5 5 5 5 4 4 4 5 6 6 7 7 7 16 10 9 9 9 9 8 8 4 5 6 6 6 8 9 9 8 8 8 7 7 6 6 6 5 5 3 2 3
4 4 4 5 5 6 6 6 6 6 6 7 6 5 1 5 7 8 5 3 2 3 3 4 6 6 6 6 7 8 9 9 8 8 8 7 6 6 6 5 4 3 3
5 5 5 4 5 5 5 7 7 7 6 7 7 5 5 6 8 8 8 8 7 6 6 6 7 9 8 8 8 7 7 7 7 9 10 8 8 8 6 5 4 5 4
5 5 5 5 5 5 6 6 7 7 6 6 6 6 6 6 7 7 6 5 5 5 5 5 5 7 9 11 10 10 9 12 9 9 7 7 8 9 7 6 6 5 5
5 5 5 5 5 6 6 6 6 6 6 6 5 5 6 6 7 7 6 5 5 5 6 6 7 11 12 11 11 12 12 13 12 12 8 7 8 8 7 7 9 6 6
Wind_Direction
213 212 212 209 207 218 220 218 189 151 162 180 180 162 162 158 161 158 150 150 139 141 150 146 147 151 148 149 148 146 141 206 213 110 158 144 289 348 341 344 323 319 340
205 202 214 206 192 207 212 187 163 167 170 176 165 162 160 161 164 162 160 156 149 153 157 151 157 154 154 157 152 168 177 158 176 190 175 153 266 326 329 302 340 329 304
214 203 201 203 208 187 184 180 171 163 164 164 167 164 172 163 165 160 159 153 156 157 160 161 156 164 159 158 160 161 175 166 169 194 197 155 224 193 289 290 319 296 315
206 213 213 206 210 199 197 171 168 167 167 174 176 171 166 167 162 159 156 151 154 155 157 161 161 167 164 162 163 172 160 145 179 207 211 213 200 160 240 337 310 317 313
208 214 218 206 200 171 161 165 159 170 171 167 156 145 143 167 159 167 158 154 153 147 150 147 158 162 162 160 153 175 171 171 182 207 224 220 212 66 295 283 300 324 300
217 210 201 183 185 173 149 145 146 147 152 156 166 165 169 165 167 176 155 152 152 153 154 156 158 152 151 148 171 181 185 174 182 210 218 212 217 188 182 299 302 319 319
217 199 180 166 168 166 159 157 164 168 161 173 174 172 177 158 170 169 153 152 153 157 157 157 155 164 157 161 185 189 199 215 219 225 243 219 211 177 196 270 279 284 279
221 199 174 170 178 163 165 189 185 180 178 180 183 187 175 169 169 161 144 145 146 157 163 166 163 163 174 170 179 196 193 201 220 227 240 200 210 196 209 291 300 290 291
221 199 180 185 175 176 185 184 182 179 182 185 175 172 168 156 166 159 145 146 154 158 165 169 169 171 179 181 190 191 204 215 228 233 240 238 241 253 221 197 259 261 297
249 232 193 187 177 185 190 181 168 166 170 123 135 146 150 151 170 169 156 154 156 156 151 155 169 168 183 192 195 201 209 212 205 229 251 254 244 233 233 227 238 244 260
184 164 160 183 184 175 159 145 157 155 143 150 156 146 148 160 180 180 174 164 164 165 175 178 189 193 193 200 201 211 210 182 221 223 230 230 202 200 209 234 233 231 238
138 150 160 152 150 154 153 134 148 154 164 168 167 162 169 173 177 187 184 186 180 175 184 181 181 194 197 207 212 220 227 234 214 218 243 247 240 245 249 178 191 215 237
122 121 111 134 159 161 165 163 161 170 180 184 183 186 182 171 177 189 194 196 189 181 171 175 180 193 205 216 225 224 227 216 200 218 240 242 247 254 107 142 202 221 239
87 111 129 148 153 176 188 181 185 188 193 192 192 195 186 184 189 192 193 195 199 193 178 178 186 190 193 208 207 226 189 195 208 220 231 234 187 198 228 234 243 261 248
61 79 101 143 179 189 221 211 216 220 214 206 208 203 192 196 202 190 186 191 194 190 160 160 180 186 199 207 198 197 193 191 205 210 222 226 225 225 231 227 227 239 251
21 57 91 169 150 217 227 244 240 268 242 244 230 213 216 220 190 194 197 197 194 178 169 184 194 200 208 203 203 200 199 201 204 202 207 209 217 228 230 231 221 234 250
1 7 1 271 159 221 219 246 260 230 261 263 251 230 222 208 189 193 195 197 193 185 200 196 203 210 209 208 206 201 200 196 188 194 196 199 199 212 221 230 240 232 228
347 340 301 263 245 245 223 226 235 250 251 244 243 240 224 211 208 197 195 190 199 205 207 203 211 212 211 207 201 197 189 170 175 187 194 193 193 203 216 223 228 229 233
352 339 331 304 297 287 285 268 255 245 244 243 221 228 228 223 221 212 201 203 198 202 209 214 209 208 212 204 197 188 185 189 184 184 186 185 184 189 213 220 225 214 164
357 352 336 318 313 283 267 262 258 256 255 248 247 236 213 205 213 214 211 211 208 213 213 216 207 204 205 193 185 181 181 183 184 183 182 180 185 187 207 194 186 189 176
349 346 338 308 292 286 280 273 269 265 261 256 256 246 230 216 221 219 220 215 214 218 212 211 208 197 192 184 182 184 188 189 189 184 183 186 177 185 188 198 183 168 167
348 341 333 325 318 303 288 282 276 270 271 269 267 259 249 238 231 231 229 232 237 244 224 202 204 199 205 195 183 182 187 191 184 179 177 176 175 178 184 183 184 171 157
343 337 330 327 323 320 310 304 297 293 292 288 283 282 214 251 246 236 233 216 181 177 167 179 193 187 181 192 192 187 182 187 187 172 175 171 176 190 177 182 175 163 183
336 329 329 320 319 317 302 301 300 296 286 285 285 267 247 249 255 247 237 232 214 203 194 194 206 198 186 180 180 183 176 166 165 177 174 170 174 183 187 182 177 170 180
334 332 327 322 321 316 313 309 306 303 298 297 293 289 283 275 268 266 263 245 228 218 208 200 205 203 188 185 180 179 177 168 160 165 170 170 176 179 186 190 180 186 191
328 325 322 319 312 311 310 306 301 300 298 297 291 287 286 286 283 279 273 254 228 221 205 197 192 190 190 187 185 181 183 185 173 176 167 172 178 183 183 188 188 192 196